Total_Precipitation_Accumulation
0.00 0.00 0.00 0.00 0.00 0.00 0.00 0.00 0.00 0.00 0.00 0.00 0.00 0.00 0.00 0.01 0.01 0.02 0.07 0.16 0.39 0.73 0.89 0.94 0.95 0.83 0.84 0.86 0.84 0.89 0.99 1.14 1.25 1.37 1.43 1.41 1.27 1.19 1.03 0.94 0.87 0.89 0.93 1.09
0.00 0.00 0.00 0.00 0.00 0.00 0.00 0.00 0.00 0.00 0.00 0.00 0.00 0.00 0.01 0.02 0.02 0.02 0.04 0.10 0.22 0.46 0.72 0.76 0.72 0.67 0.72 0.92 1.05 1.07 1.07 1.16 1.24 1.51 1.82 2.01 2.04 1.78 1.41 1.27 1.21 1.12 1.12 1.21
0.00 0.00 0.00 0.00 0.00 0.00 0.00 0.00 0.00 0.00 0.00 0.00 0.00 0.00 0.01 0.02 0.04 0.07 0.10 0.15 0.24 0.32 0.41 0.48 0.51 0.56 0.62 0.74 0.79 0.78 0.81 0.91 0.98 1.15 1.46 1.71 1.97 1.89 1.66 1.45 1.36 1.29 1.27 1.26
0.00 0.00 0.00 0.00 0.00 0.00 0.00 0.00 0.00 0.00 0.00 0.00 0.00 0.00 0.00 0.02 0.04 0.07 0.11 0.18 0.29 0.36 0.39 0.47 0.50 0.51 0.51 0.53 0.54 0.58 0.66 0.77 0.90 1.06 1.29 1.58 1.85 1.81 1.75 1.70 1.50 1.32 1.19 1.11
0.00 0.00 0.00 0.00 0.00 0.00 0.00 0.00 0.00 0.00 0.00 0.00 0.00 0.00 0.00 0.01 0.03 0.06 0.11 0.18 0.26 0.34 0.40 0.44 0.47 0.48 0.48 0.51 0.57 0.62 0.71 0.83 0.95 1.06 1.18 1.35 1.72 1.74 1.59 1.47 1.32 1.21 1.10 1.03
0.00 0.00 0.00 0.00 0.00 0.00 0.00 0.00 0.00 0.00 0.00 0.00 0.01 0.01 0.01 0.02 0.05 0.08 0.15 0.24 0.32 0.37 0.42 0.46 0.51 0.52 0.48 0.51 0.57 0.61 0.64 0.71 0.79 0.85 0.93 0.99 1.17 1.25 1.18 1.12 1.06 0.97 0.89 0.86
0.00 0.00 0.01 0.01 0.01 0.01 0.00 0.02 0.05 0.03 0.01 0.01 0.02 0.02 0.05 0.06 0.06 0.09 0.19 0.34 0.44 0.45 0.42 0.44 0.47 0.49 0.51 0.52 0.53 0.53 0.53 0.56 0.55 0.54 0.54 0.58 0.69 0.82 0.87 0.88 0.88 0.85 0.76 0.70
0.01 0.01 0.03 0.02 0.02 0.04 0.04 0.07 0.20 0.17 0.07 0.04 0.02 0.03 0.13 0.13 0.15 0.16 0.21 0.29 0.35 0.36 0.34 0.34 0.36 0.39 0.43 0.45 0.48 0.48 0.46 0.48 0.49 0.49 0.50 0.48 0.51 0.63 0.74 0.79 0.79 0.75 0.67 0.58
0.01 0.01 0.02 0.01 0.02 0.04 0.12 0.15 0.15 0.28 0.25 0.17 0.05 0.04 0.15 0.16 0.25 0.34 0.38 0.40 0.39 0.36 0.34 0.31 0.31 0.32 0.32 0.33 0.34 0.37 0.42 0.47 0.51 0.53 0.53 0.48 0.51 0.63 0.69 0.75 0.78 0.83 0.82 0.76
0.01 0.00 0.00 0.00 0.02 0.04 0.06 0.09 0.15 0.26 0.27 0.21 0.09 0.09 0.24 0.42 0.45 0.47 0.55 0.55 0.47 0.38 0.33 0.29 0.24 0.22 0.21 0.24 0.29 0.40 0.52 0.56 0.51 0.47 0.44 0.42 0.49 0.66 0.68 0.64 0.65 0.74 0.80 0.80
0.00 0.00 0.01 0.03 0.03 0.04 0.06 0.09 0.18 0.25 0.23 0.24 0.23 0.21 0.21 0.38 0.50 0.52 0.52 0.52 0.46 0.37 0.31 0.27 0.22 0.18 0.18 0.21 0.26 0.36 0.44 0.50 0.48 0.42 0.38 0.35 0.38 0.45 0.51 0.54 0.55 0.60 0.65 0.70
0.00 0.01 0.02 0.03 0.02 0.02 0.05 0.09 0.19 0.31 0.32 0.34 0.37 0.32 0.16 0.21 0.30 0.34 0.34 0.31 0.28 0.25 0.22 0.19 0.18 0.19 0.20 0.23 0.27 0.31 0.34 0.36 0.39 0.38 0.36 0.37 0.36 0.34 0.32 0.36 0.40 0.43 0.47 0.50
0.01 0.04 0.03 0.03 0.06 0.06 0.08 0.07 0.12 0.17 0.24 0.27 0.30 0.29 0.21 0.26 0.33 0.38 0.40 0.38 0.31 0.25 0.22 0.21 0.20 0.20 0.22 0.27 0.31 0.33 0.38 0.38 0.40 0.39 0.38 0.40 0.39 0.36 0.29 0.28 0.29 0.30 0.29 0.27
0.00 0.01 0.02 0.03 0.03 0.03 0.05 0.07 0.12 0.18 0.26 0.22 0.19 0.21 0.30 0.40 0.43 0.42 0.40 0.39 0.35 0.24 0.18 0.19 0.21 0.22 0.24 0.27 0.28 0.28 0.33 0.39 0.44 0.47 0.55 0.54 0.48 0.43 0.36 0.28 0.25 0.22 0.20 0.18
0.00 0.00 0.00 0.01 0.02 0.03 0.04 0.05 0.10 0.14 0.17 0.25 0.19 0.18 0.27 0.35 0.40 0.40 0.34 0.28 0.25 0.21 0.19 0.19 0.22 0.25 0.25 0.25 0.26 0.26 0.29 0.33 0.36 0.42 0.52 0.57 0.51 0.44 0.37 0.30 0.23 0.21 0.19 0.15
0.00 0.00 0.01 0.02 0.06 0.07 0.07 0.05 0.07 0.10 0.11 0.15 0.17 0.19 0.20 0.21 0.27 0.30 0.28 0.26 0.24 0.23 0.20 0.17 0.17 0.17 0.20 0.21 0.20 0.21 0.22 0.24 0.26 0.30 0.36 0.43 0.43 0.39 0.33 0.26 0.20 0.16 0.14 0.13
0.01 0.01 0.01 0.03 0.06 0.09 0.10 0.07 0.07 0.07 0.06 0.12 0.24 0.27 0.21 0.22 0.26 0.27 0.22 0.19 0.18 0.15 0.12 0.10 0.12 0.12 0.11 0.10 0.11 0.16 0.18 0.20 0.26 0.29 0.30 0.36 0.41 0.39 0.30 0.20 0.18 0.16 0.13 0.13
0.01 0.02 0.03 0.07 0.08 0.12 0.08 0.02 0.02 0.05 0.05 0.05 0.13 0.16 0.15 0.16 0.15 0.12 0.10 0.09 0.08 0.06 0.05 0.04 0.04 0.05 0.04 0.04 0.08 0.13 0.17 0.24 0.29 0.32 0.35 0.38 0.39 0.39 0.33 0.25 0.22 0.22 0.21 0.20
0.01 0.01 0.02 0.04 0.06 0.05 0.02 0.02 0.03 0.07 0.07 0.03 0.06 0.08 0.07 0.05 0.07 0.08 0.04 0.02 0.01 0.01 0.01 0.01 0.02 0.03 0.03 0.06 0.11 0.18 0.26 0.34 0.36 0.36 0.36 0.37 0.40 0.45 0.44 0.36 0.28 0.25 0.25 0.24
0.00 0.01 0.01 0.02 0.04 0.06 0.03 0.03 0.04 0.05 0.14 0.07 0.04 0.04 0.03 0.03 0.10 0.13 0.04 0.00 0.00 0.00 0.01 0.01 0.03 0.05 0.08 0.11 0.15 0.22 0.31 0.38 0.40 0.38 0.35 0.36 0.38 0.42 0.48 0.47 0.38 0.32 0.31 0.27
0.00 0.01 0.01 0.02 0.04 0.03 0.01 0.03 0.04 0.12 0.18 0.03 0.01 0.01 0.01 0.03 0.07 0.06 0.02 0.00 0.00 0.01 0.01 0.02 0.06 0.08 0.10 0.11 0.15 0.23 0.32 0.37 0.36 0.33 0.34 0.39 0.42 0.46 0.50 0.53 0.49 0.44 0.40 0.36
0.00 0.01 0.01 0.03 0.06 0.07 0.01 0.00 0.02 0.04 0.03 0.01 0.01 0.01 0.01 0.01 0.01 0.00 0.00 0.01 0.01 0.01 0.02 0.04 0.09 0.13 0.12 0.12 0.17 0.22 0.27 0.31 0.32 0.33 0.38 0.42 0.48 0.46 0.51 0.63 0.65 0.66 0.61 0.49
0.00 0.01 0.01 0.02 0.04 0.02 0.01 0.00 0.01 0.01 0.01 0.01 0.01 0.01 0.01 0.01 0.01 0.01 0.01 0.01 0.01 0.01 0.03 0.06 0.10 0.13 0.17 0.22 0.24 0.28 0.27 0.29 0.34 0.40 0.46 0.46 0.47 0.50 0.57 0.62 0.65 0.64 0.60 0.54
0.00 0.00 0.01 0.03 0.02 0.01 0.01 0.01 0.01 0.00 0.00 0.00 0.00 0.01 0.01 0.01 0.01 0.01 0.01 0.02 0.02 0.03 0.06 0.09 0.15 0.22 0.29 0.36 0.37 0.34 0.33 0.36 0.42 0.50 0.57 0.58 0.57 0.55 0.55 0.61 0.63 0.61 0.55 0.51
0.00 0.00 0.02 0.04 0.02 0.01 0.01 0.01 0.00 0.00 0.00 0.00 0.00 0.01 0.01 0.02 0.02 0.02 0.02 0.03 0.04 0.05 0.07 0.11 0.19 0.27 0.30 0.38 0.46 0.45 0.47 0.53 0.58 0.57 0.55 0.58 0.62 0.69 0.70 0.67 0.68 0.68 0.61 0.53
0.01 0.02 0.03 0.04 0.04 0.04 0.03 0.01 0.00 0.00 0.00 0.01 0.01 0.01 0.02 0.03 0.03 0.02 0.02 0.03 0.04 0.06 0.09 0.14 0.20 0.26 0.32 0.40 0.47 0.49 0.53 0.60 0.67 0.66 0.60 0.62 0.65 0.69 0.72 0.72 0.64 0.58 0.54 0.48